Location: Unspecified
(0.0000°N, 0.0000°E)
Time: 17:41:49
(UTC+00:00)

Hubble Space Telescope - Pass Details

Date: 14 August 2019
Orbit: 536 x 540 km, 28.5° (Epoch: 06 December)

Event Time Altitude Azimuth Distance (km) Brightness Sun altitude
Exits shadow 04:16:22 23° 144° (SE) 1,176 2.6 -26.2°
Drops below altitude 10° 04:18:04 10° 134° (SE) 1,788 3.8 -25.8°
Sets 04:20:22 0° 129° (SE) 2,680 4.8 -25.2°
